Home > Weather > Ra'anana > Past weeks

Flag for Israel Past Weather in Ra'anana, Israel — Yesterday and Last 2 Weeks

Now
82 °F

Passing clouds.


Feels Like: 87 °F
Forecast: 80 / 88 °F
Wind: 7 mph from Northwest

Location: Dov Airport

Current Time: Aug 26, 2016 at 9:44:12 PM

Latest Report: Aug 26, 2016 at 8:50 PM


Visibility: N/A

Pressure: 29.86 "Hg

Humidity: 70%

Dew Point: 72 °F

Location of Ra'ananaLocation

Past Weather in Ra'anana — Graph

°F

Ra'anana Temperature Yesterday

Maximum temperature yesterday: 88 °F (at 11:50 AM)
Minimum temperature yesterday: 82 °F (at 4:50 AM)
Average temperature yesterday: 84 °F

High & Low Weather Summary for the Past Weeks

 TemperatureHumidityPressure
High88 °F (Aug 12, 12:50 PM)83% (Aug 20, 6:00 AM)29.86 "Hg (Aug 20, 6:00 AM)
Low77 °F (Aug 13, 6:00 AM)52% (Aug 16, 10:50 AM)29.71 "Hg (Aug 18, 5:50 AM)
Average84 °F66%29.80 "Hg
* Reported Aug 11 7:50 PM — Aug 26 7:50 PM, Ra'anana, Weather by CustomWeather, © 2016

Note: Actual official high and low records may vary slightly from our data, if they occured in-between our weather recording intervals... More about our weather records

Advertising

Ra'anana Weather History for the Previous 24 Hours

Scroll right to see more
 ConditionsComfort  
Time TempWeatherWind HumidityBarometerVisibility
7:50 PM
Fri, Aug 26
82 °FScattered clouds.8 mph70%29.86 "HgN/A
6:50 PM84 °FScattered clouds.9 mph70%29.86 "HgN/A
5:50 PM86 °FPassing clouds.13 mph66%29.86 "HgN/A
4:50 PM86 °FPassing clouds.12 mph62%29.86 "HgN/A
3:50 PM86 °FPassing clouds.10 mph62%29.86 "HgN/A
2:50 PM86 °FScattered clouds.10 mph62%29.86 "HgN/A
1:50 PM86 °FPassing clouds.10 mph62%29.86 "HgN/A
12:50 PM88 °FPassing clouds.9 mph59%29.86 "HgN/A
11:50 AM86 °FPassing clouds.8 mph66%29.86 "HgN/A
10:50 AM86 °FPassing clouds.6 mph66%29.86 "HgN/A
9:50 AM84 °FPassing clouds.6 mph70%29.86 "HgN/A
8:50 AM82 °FPassing clouds.5 mph70%29.83 "HgN/A
7:50 AM82 °FPassing clouds.5 mph70%29.83 "HgN/A
6:50 AM79 °FPassing clouds.5 mph79%29.83 "HgN/A
5:50 AM79 °FPassing clouds.5 mph79%29.83 "HgN/A
4:50 AM79 °FPassing clouds.3 mph79%29.80 "HgN/A
11:50 PM
Thu, Aug 25
82 °FPassing clouds.5 mph74%29.80 "HgN/A
10:50 PM82 °FClear.6 mph70%29.80 "Hg10 mi
9:50 PM82 °FPassing clouds.3 mph70%29.83 "HgN/A
Weather by CustomWeather, © 2016

See weather overviewHow to use our weather pages